Location: Unspecified
(0.0000°N, 0.0000°E)
Time: 22:42:28
(UTC+00:00)

GONETS D1M 1 - Pass Details

Date: 24 May 2026
Orbit: 1435 x 1447 km, 82.5° (Epoch: 7 June)

Event Time Altitude Azimuth Distance (km) Brightness Sun altitude
Rises 04:34:25 0° 170° (S) 4,537 9.2 -19.2°
Reaches altitude 10° 04:37:26 10° 163° (SSE) 3,559 8.7 -18.5°
Maximum altitude 04:45:27 45° 93° (E) 1,884 7.7 -16.7°
Drops below altitude 10° 04:53:25 10° 23° (NNE) 3,554 9.4 -14.8°
Sets 04:56:24 0° 18° (NNE) 4,530 9.9 -14.1°
